OBJECT F

基本信息
目录编号:
69577
目录名称:
OBJECT F
国际标识:
2026-137F
轨道中心:
EARTH
物体状态:
在轨
发射日期:
2026-06-17 UTC
国别:
中国 (CN)
轨道信息
数据来源: 国际轨道数据 AOE轨道数据
星历时间: 2026-06-19T01:42:13+0800 2026-06-19T06:00:00+0800
半长轴: 7297.767km 7297.762km
偏心率: 0.0010775 0.0010402
轨道倾角: 50.005° 49.992°
近地点辐角: 234.133° 234.415°
升交点赤经: 249.239° 248.520°
平近点角: 125.857° 303.637°
近地点: 911.766km 912.033km
远地点: 927.494km 927.217km
周期: 103.406分钟 103.406分钟
每日圈数: 13.925724 13.925738
详细信息
发射场:
WSC
轨道高度:
LEO
数据来源:
AOE Working Group
参考系:
TEME
时间系统:
UTC
历元类型:
SGP4
2D轨道图
3D轨道图
轨道高度分析图
轨道倾角分析图
轨道综合分析图
查看轨道综合分析图